Wind_Speed
71 69 71 71 66 64 60 59 56 56 35 32 33 35 35 28 25 22 21 14 12 5 3 7 12 14 15 20 23 25 24 26 27 24 23 20 26 29 30 29 29 25 27 25
76 76 75 72 68 65 62 62 61 61 53 35 32 35 35 31 27 27 23 16 16 13 10 14 14 15 14 16 20 20 21 22 25 25 22 22 23 27 28 29 28 28 26 25
84 84 77 74 72 68 65 62 66 65 61 50 43 32 34 36 28 30 25 25 19 15 8 7 11 13 14 15 15 15 18 17 19 22 23 22 21 23 24 26 26 27 27 27
85 86 81 77 74 71 69 67 64 68 63 62 56 50 40 34 38 33 28 30 23 19 14 9 10 7 14 13 11 12 15 15 15 17 21 21 22 21 20 23 24 24 24 26
82 86 84 81 80 78 77 70 69 66 67 64 64 62 50 45 33 38 34 35 31 23 21 16 15 16 14 8 9 8 12 12 13 13 16 19 22 23 20 20 21 21 23 24
83 85 86 85 83 82 79 72 70 70 68 68 66 68 53 48 51 49 40 38 38 37 40 33 24 20 26 13 10 8 9 10 12 10 11 14 19 19 21 19 18 19 19 21
83 81 85 89 86 84 78 74 72 71 69 68 71 71 62 53 54 52 46 48 46 46 46 38 34 30 26 16 15 10 10 9 10 9 8 8 11 13 16 18 15 17 17 16
87 83 84 87 87 87 83 79 75 73 73 73 70 73 72 63 56 51 49 54 51 46 35 35 32 24 24 20 16 15 11 8 10 10 8 9 8 9 10 14 10 12 16 14
89 88 87 87 91 92 87 82 81 79 78 75 71 69 72 74 66 61 60 55 55 47 46 38 34 29 24 21 22 20 17 11 10 11 9 8 9 8 9 8 8 9 14 12
88 91 90 88 90 92 91 88 84 81 80 77 74 74 69 74 66 63 62 59 59 57 49 46 39 36 28 32 27 22 20 15 10 9 9 7 9 8 9 11 4 3 9 9
89 91 91 90 89 90 91 88 86 84 83 81 78 76 75 72 78 76 68 61 59 63 57 47 44 41 33 32 32 28 25 19 17 11 11 5 4 4 6 8 11 7 5 8
89 91 90 90 88 88 90 91 90 88 85 83 81 79 77 73 71 70 70 67 58 54 49 48 51 45 39 41 37 34 28 22 21 14 13 9 8 11 7 1 4 10 10 10
90 90 90 91 89 89 88 89 90 88 87 83 81 81 79 78 78 74 71 69 61 50 51 50 49 46 44 43 44 39 34 30 29 24 17 13 11 13 11 9 6 7 7 9
90 89 90 91 89 88 86 84 86 89 88 85 81 79 81 81 80 78 79 77 70 65 56 54 55 48 51 51 53 45 38 36 31 35 31 26 18 15 14 10 9 10 14 14
92 91 92 91 90 90 88 85 83 86 89 87 85 83 80 80 82 81 82 80 85 79 74 66 63 58 59 59 60 55 48 47 36 38 40 36 30 22 22 20 19 14 13 14
89 93 94 94 91 90 89 88 86 86 87 90 90 87 85 81 78 82 83 83 83 83 83 72 70 66 65 64 67 59 55 50 45 44 47 41 43 35 32 28 23 24 25 24
86 91 97 96 95 93 92 90 88 87 88 89 90 90 89 84 81 80 83 87 83 82 86 86 85 79 73 69 72 73 60 58 55 53 54 51 52 47 41 35 33 30 32 33
83 91 92 94 95 96 93 92 91 90 89 86 87 88 90 85 85 84 84 84 86 83 85 89 90 94 91 79 76 70 69 65 60 58 58 57 57 59 52 48 41 38 39 39
79 85 92 96 96 95 92 92 94 92 91 89 87 86 85 86 88 89 89 89 87 88 86 89 93 90 93 93 92 86 75 71 67 59 59 61 60 65 63 52 50 48 45 46
78 79 87 91 96 95 97 96 94 92 93 93 93 89 87 87 89 92 93 94 93 89 89 90 90 91 90 89 92 91 82 79 71 65 63 66 66 67 66 64 55 54 54 55
79 78 79 82 88 92 95 95 93 95 93 93 94 90 90 90 91 91 95 96 96 98 93 94 96 96 92 92 95 91 89 85 87 78 77 71 71 72 71 68 62 61 59 56
85 81 79 80 82 84 86 88 89 92 95 96 95 93 93 92 93 96 98 96 97 98 99 99 98 99 102 98 95 95 91 96 94 88 81 82 80 75 75 76 70 60 61 60
86 87 85 82 81 80 84 87 88 87 87 90 94 94 93 95 96 98 100 101 101 103 104 102 103 102 103 105 106 106 105 100 100 102 99 86 90 86 79 84 79 77 72 69
66 83 90 87 85 83 82 82 85 89 92 91 89 90 93 96 95 98 101 102 105 105 104 104 106 107 107 106 106 106 103 102 102 103 106 100 96 94 90 91 88 88 84 77
49 63 77 89 91 88 86 85 83 85 88 93 97 96 92 94 97 96 102 103 104 103 104 105 106 107 110 112 110 107 106 105 106 105 102 103 102 108 108 102 98 94 95 95
35 47 56 68 81 91 92 90 89 87 87 89 92 95 98 100 99 101 104 103 107 107 104 103 103 103 107 108 110 112 112 110 109 108 108 107 104 106 106 107 107 105 108 108
Wind_Direction
219 216 217 217 214 211 209 208 212 217 194 200 200 197 200 217 213 234 230 225 226 219 270 286 322 344 11 3 6 13 16 26 29 33 39 41 42 48 48 47 46 56 61 63
218 217 215 217 214 212 210 210 210 216 207 201 189 207 211 219 224 229 244 225 230 245 261 267 299 310 342 1 357 3 9 26 27 28 28 37 39 44 46 47 51 51 52 61
216 217 216 216 216 214 212 212 213 215 213 204 199 196 205 216 210 220 233 236 231 243 254 239 269 294 318 345 349 360 0 17 25 27 28 32 33 38 48 49 50 50 50 50
217 217 217 216 217 216 214 213 216 214 215 212 210 215 217 218 232 219 229 237 224 234 250 232 274 302 314 331 332 343 345 355 19 23 29 33 33 34 38 50 52 53 51 52
218 218 217 216 216 215 215 214 216 216 216 217 214 218 214 209 207 227 220 234 234 235 253 259 269 274 296 309 305 311 320 338 351 20 20 29 38 32 27 37 49 56 52 50
218 217 217 216 217 217 216 214 216 217 217 217 216 216 216 215 213 213 220 224 234 241 260 261 259 263 285 279 263 275 299 320 326 355 13 22 33 33 26 25 28 51 54 54
220 218 218 218 217 217 216 217 217 218 218 219 214 218 218 216 214 219 218 222 231 243 251 248 258 259 269 267 263 251 271 295 302 320 344 9 25 30 28 31 19 22 43 55
217 218 219 218 218 218 216 214 214 217 219 221 217 217 218 217 211 219 226 229 231 237 244 254 255 248 253 255 257 243 247 270 286 287 310 328 355 21 25 29 32 360 21 40
215 217 219 218 217 218 216 215 214 215 218 222 221 220 219 222 225 228 229 225 231 233 242 247 243 248 237 256 255 231 239 258 277 272 271 292 314 332 359 18 41 348 1 18
214 215 218 219 218 219 218 215 214 215 217 219 221 222 220 220 220 221 220 225 235 239 238 235 243 250 243 249 226 222 231 242 262 264 258 256 280 293 317 346 316 282 331 358
213 213 217 219 219 219 219 217 217 216 217 217 219 223 223 219 220 225 225 229 231 232 234 244 242 242 234 235 214 214 220 242 248 217 256 239 254 270 357 5 337 296 28 12
212 212 215 218 220 220 220 218 216 216 216 218 219 222 224 223 220 223 220 223 225 234 238 234 239 234 228 237 212 217 226 241 240 237 208 210 205 185 184 319 265 299 302 12
210 212 214 217 219 220 221 220 218 219 218 219 220 221 224 224 217 221 219 220 217 218 223 229 235 234 236 235 214 222 233 233 233 240 218 223 199 185 195 197 206 250 245 283
209 213 215 217 218 221 221 222 222 220 220 218 219 220 222 226 224 222 223 218 220 215 220 219 227 228 232 223 221 227 233 236 242 232 240 243 217 200 192 232 260 272 260 247
211 211 214 217 218 221 220 221 222 222 221 221 220 219 222 223 226 225 226 226 224 225 228 223 225 222 229 230 230 228 232 234 242 235 239 238 232 218 225 237 243 243 257 267
210 212 214 216 217 220 222 221 222 223 222 222 223 222 222 225 225 228 228 228 228 229 227 223 218 221 226 235 238 226 230 237 238 235 241 236 233 235 235 233 235 239 242 250
214 212 214 215 216 218 221 222 222 223 225 225 224 224 224 225 228 227 230 231 229 230 231 227 222 223 225 230 235 236 232 235 236 233 241 243 231 235 236 240 239 236 245 251
215 217 216 218 218 219 221 222 223 223 223 225 227 227 226 226 228 230 230 231 232 229 230 231 231 231 232 232 227 231 236 233 230 231 234 242 247 246 239 244 241 237 239 243
220 218 220 219 219 219 221 223 225 225 224 224 226 227 228 228 229 230 231 231 231 230 230 231 234 233 234 235 230 230 230 235 229 231 232 237 246 249 245 242 244 247 248 242
220 223 223 223 223 221 222 223 224 226 227 227 227 226 227 229 230 231 231 232 232 232 231 231 234 236 233 234 234 233 233 232 229 232 231 231 239 245 245 245 244 248 249 245
222 223 225 226 226 226 225 226 227 228 227 229 230 229 229 229 230 232 233 233 233 233 232 232 232 234 234 234 232 233 235 232 231 234 236 234 232 242 245 242 244 249 251 246
223 224 226 226 227 226 227 225 227 230 230 230 231 229 227 228 230 231 232 234 233 234 234 234 234 235 235 238 234 234 236 235 234 233 232 238 239 235 243 241 243 242 248 251
223 225 226 227 227 227 228 229 226 227 230 229 230 230 229 231 230 231 233 233 234 234 233 234 235 235 236 237 240 241 238 238 238 239 239 236 237 234 235 236 237 238 235 241
227 228 228 228 229 228 227 229 230 229 229 230 229 230 230 229 231 232 233 234 235 235 236 235 235 237 238 238 239 241 242 244 242 241 241 239 237 234 236 235 235 235 237 235
228 229 230 231 232 231 231 230 229 230 230 233 233 231 232 233 234 236 236 235 235 236 237 237 237 238 239 241 240 240 243 243 245 244 244 243 243 241 241 241 238 237 240 237
241 238 237 236 234 233 232 232 231 231 232 232 233 235 234 235 237 238 239 239 238 236 236 237 238 238 239 241 244 244 243 243 243 244 244 244 243 244 243 242 241 242 242 241
Height
10876 10888 10889 10897 10914 10927 10939 10947 10954 10958 10966 10968 10976 10980 10985 10986 10991 10993 10995 10999 11001 11002 11005 11005 11006 11008 11007 11006 11005 11002 11000 10996 10993 10990 10991 10990 10988 10984 10981 10978 10973 10970 10966 10964
10862 10867 10875 10891 10904 10918 10929 10938 10943 10949 10959 10965 10971 10974 10980 10984 10987 10990 10991 10996 11000 11001 11004 11005 11006 11007 11009 11008 11006 11004 11003 11001 10998 10994 10993 10993 10991 10988 10986 10983 10979 10976 10974 10971
10838 10843 10866 10882 10894 10907 10919 10927 10933 10939 10950 10959 10965 10967 10973 10978 10983 10988 10988 10993 10997 10999 11002 11005 11007 11006 11007 11008 11007 11005 11004 11004 11003 10999 10996 10994 10994 10993 10992 10989 10986 10983 10981 10979
10823 10837 10854 10870 10883 10896 10905 10914 10921 10932 10943 10952 10956 10960 10965 10973 10976 10983 10985 10988 10993 10997 10999 11003 11004 11006 11007 11008 11008 11006 11006 11005 11005 11001 10999 10997 10996 10996 10996 10994 10992 10990 10989 10986
10813 10826 10841 10857 10866 10877 10886 10903 10911 10924 10934 10942 10948 10952 10961 10967 10972 10977 10984 10985 10990 10992 10996 10999 11002 11005 11008 11008 11009 11008 11007 11007 11004 11003 11001 11001 10999 10998 10999 10997 10996 10994 10993 10992
10798 10812 10830 10839 10852 10864 10877 10895 10903 10913 10924 10931 10941 10947 10953 10961 10967 10972 10978 10980 10984 10988 10991 10995 11001 11002 11006 11007 11008 11007 11007 11006 11006 11005 11004 11004 11002 11001 11001 11000 10999 10998 10997 10996
10787 10802 10813 10824 10839 10851 10872 10888 10896 10904 10916 10917 10931 10937 10947 10955 10961 10965 10971 10974 10977 10983 10986 10989 10995 11000 11002 11004 11006 11006 11006 11007 11005 11006 11005 11005 11004 11005 11004 11003 11001 11001 11000 10999
10774 10788 10797 10813 10827 10840 10855 10867 10883 10894 10899 10902 10918 10928 10938 10947 10952 10957 10962 10968 10974 10979 10980 10984 10990 10995 10996 10999 11002 11004 11005 11006 11005 11005 11005 11006 11006 11006 11006 11004 11004 11003 11004 11003
10759 10772 10781 10795 10806 10820 10840 10857 10863 10876 10885 10895 10912 10917 10929 10938 10944 10949 10955 10960 10967 10973 10976 10980 10985 10989 10991 10996 10999 11000 11002 11004 11004 11006 11005 11005 11006 11006 11006 11006 11005 11006 11006 11006
10747 10757 10766 10778 10792 10806 10823 10837 10851 10864 10873 10887 10898 10905 10919 10928 10931 10939 10945 10951 10959 10965 10969 10974 10979 10984 10985 10990 10993 10995 10998 11001 11003 11002 11003 11005 11004 11005 11005 11006 11006 11006 11006 11006
10731 10743 10754 10765 10779 10792 10807 10828 10840 10852 10861 10873 10883 10895 10904 10913 10919 10928 10936 10944 10950 10958 10963 10965 10970 10976 10978 10984 10986 10990 10991 10995 11000 10999 10999 11001 11002 11003 11004 11005 11007 11007 11006 11007
10715 10729 10740 10752 10766 10777 10790 10808 10822 10835 10847 10859 10871 10881 10889 10900 10907 10915 10926 10934 10943 10947 10952 10956 10959 10967 10971 10978 10980 10982 10986 10989 10994 10996 10996 10996 10998 10999 11002 11003 11006 11006 11007 11006
10700 10715 10725 10738 10751 10764 10777 10795 10811 10822 10835 10849 10859 10869 10877 10885 10898 10905 10914 10923 10933 10938 10941 10945 10951 10956 10962 10968 10971 10973 10978 10981 10987 10992 10993 10994 10994 10995 10998 10998 11000 11003 11003 11003
10686 10701 10714 10725 10741 10753 10766 10778 10793 10807 10820 10832 10843 10853 10862 10869 10879 10889 10897 10908 10915 10923 10928 10933 10937 10945 10950 10958 10960 10963 10969 10972 10978 10982 10988 10990 10991 10992 10993 10996 10997 10998 11000 11002
10672 10684 10697 10710 10727 10735 10749 10763 10776 10790 10803 10817 10825 10835 10843 10852 10862 10873 10880 10889 10898 10906 10911 10917 10925 10933 10938 10944 10948 10955 10960 10964 10969 10973 10978 10983 10986 10985 10988 10989 10992 10993 10996 10998
10659 10669 10680 10694 10710 10721 10734 10747 10759 10773 10786 10799 10807 10821 10832 10838 10849 10857 10864 10872 10881 10890 10899 10906 10911 10917 10924 10929 10933 10945 10951 10956 10961 10965 10968 10971 10976 10975 10979 10982 10984 10987 10989 10992
10647 10654 10661 10675 10690 10704 10714 10730 10746 10761 10771 10782 10793 10802 10813 10825 10834 10843 10846 10854 10864 10874 10880 10889 10894 10900 10907 10914 10919 10930 10939 10944 10949 10954 10957 10959 10963 10967 10969 10973 10976 10980 10982 10983
10634 10643 10651 10665 10677 10689 10704 10716 10729 10740 10756 10770 10776 10787 10801 10812 10818 10822 10829 10839 10847 10854 10862 10868 10876 10884 10892 10898 10905 10913 10922 10930 10935 10940 10945 10950 10952 10955 10959 10961 10965 10970 10972 10974
10622 10629 10639 10648 10661 10677 10691 10701 10711 10724 10740 10752 10762 10773 10785 10792 10798 10805 10810 10819 10827 10833 10842 10850 10858 10867 10875 10883 10890 10897 10907 10916 10922 10925 10931 10937 10941 10943 10948 10949 10952 10957 10961 10965
10610 10619 10627 10638 10650 10666 10668 10681 10695 10712 10723 10734 10742 10754 10765 10772 10777 10779 10789 10799 10809 10816 10826 10831 10836 10846 10856 10866 10876 10883 10891 10901 10908 10911 10916 10920 10926 10931 10934 10938 10940 10944 10948 10953
10597 10608 10618 10629 10639 10650 10661 10673 10684 10692 10707 10714 10724 10738 10747 10752 10755 10763 10769 10778 10787 10794 10806 10811 10817 10826 10836 10846 10857 10865 10874 10881 10889 10896 10902 10906 10911 10916 10921 10924 10927 10929 10930 10937
10583 10593 10604 10613 10623 10636 10643 10654 10667 10672 10683 10696 10707 10716 10723 10728 10735 10738 10746 10758 10768 10771 10781 10792 10802 10809 10821 10826 10838 10848 10856 10863 10870 10876 10883 10889 10894 10901 10906 10909 10915 10919 10920 10920
10571 10577 10586 10595 10607 10618 10626 10636 10647 10654 10665 10675 10684 10694 10703 10710 10714 10719 10724 10734 10743 10749 10759 10769 10780 10788 10798 10806 10815 10825 10834 10841 10847 10854 10863 10867 10874 10880 10886 10891 10896 10902 10904 10908
10558 10563 10570 10577 10587 10598 10609 10616 10627 10638 10647 10654 10666 10676 10683 10689 10695 10700 10705 10712 10718 10730 10741 10750 10757 10764 10774 10783 10791 10799 10809 10816 10825 10832 10840 10847 10855 10860 10866 10872 10875 10880 10886 10889
10544 10546 10553 10561 10570 10580 10590 10600 10608 10617 10627 10634 10644 10653 10662 10670 10675 10679 10682 10690 10699 10711 10720 10728 10736 10745 10750 10756 10768 10778 10784 10792 10799 10807 10814 10822 10831 10837 10843 10849 10855 10859 10862 10868
10536 10539 10542 10545 10550 10558 10570 10578 10587 10598 10606 10615 10621 10627 10641 10649 10654 10656 10657 10666 10672 10682 10693 10703 10714 10723 10728 10736 10743 10750 10757 10765 10773 10779 10785 10794 10804 10809 10815 10821 10829 10834 10839 10841